Stündliche Wetter Holoshyna

Heute, 22 Juni, Dienstag

Zeit Temperatur Niederschläge Wind Luftdruck Luftfeuchtigkeit
00:00 +15°C° 0 mm 1 m/S 678 mmHg 95%
01:00 +14°C° 0 mm 1 m/S 678 mmHg 94%
02:00 +14°C° 0 mm 1 m/S 678 mmHg 94%
03:00 +14°C° 0 mm 1 m/S 678 mmHg 94%
04:00 +14°C° 0 mm 1 m/S 678 mmHg 94%
05:00 +14°C° 0 mm 1 m/S 678 mmHg 93%
06:00 +16°C° 0 mm 1 m/S 678 mmHg 86%
07:00 +18°C° 0 mm 0 m/S 679 mmHg 79%
08:00 +20°C° 0 mm 0 m/S 679 mmHg 71%
09:00 +21°C° 0 mm 0 m/S 680 mmHg 63%
10:00 +25°C° 0 mm 1 m/S 680 mmHg 55%
11:00 +27°C° 0 mm 1 m/S 680 mmHg 46%
12:00 +27°C° 0 mm 1 m/S 680 mmHg 46%
13:00 +28°C° 0 mm 2 m/S 680 mmHg 45%
14:00 +28°C° 0 mm 2 m/S 680 mmHg 44%
15:00 +27°C° 0.8 mm 2 m/S 680 mmHg 55%
16:00 +25°C° 0.8 mm 1 m/S 680 mmHg 66%
17:00 +23°C° 0.8 mm 1 m/S 680 mmHg 76%
18:00 +22°C° 0.5 mm 1 m/S 680 mmHg 80%
19:00 +21°C° 0.5 mm 1 m/S 680 mmHg 84%
20:00 +18°C° 0.5 mm 0 m/S 679 mmHg 88%
21:00 +19°C° 0.2 mm 1 m/S 679 mmHg 89%
22:00 +18°C° 0.2 mm 1 m/S 680 mmHg 91%
23:00 +16°C° 0.2 mm 1 m/S 680 mmHg 92%

Morgen, 23 Juni, Mittwoch

Zeit Temperatur Niederschläge Wind Luftdruck Luftfeuchtigkeit
00:00 +16°C° 0.1 mm 1 m/S 680 mmHg 92%
01:00 +16°C° 0.1 mm 1 m/S 680 mmHg 92%
02:00 +16°C° 0.1 mm 1 m/S 680 mmHg 92%
03:00 +16°C° 0 mm 1 m/S 680 mmHg 91%
04:00 +16°C° 0 mm 1 m/S 680 mmHg 91%
05:00 +16°C° 0 mm 1 m/S 680 mmHg 90%
06:00 +17°C° 0 mm 0 m/S 681 mmHg 85%
07:00 +19°C° 0 mm 0 m/S 681 mmHg 79%
08:00 +21°C° 0 mm 0 m/S 682 mmHg 73%
09:00 +22°C° 0.2 mm 0 m/S 682 mmHg 68%
10:00 +25°C° 0.2 mm 1 m/S 682 mmHg 64%
11:00 +26°C° 0.2 mm 1 m/S 683 mmHg 59%
12:00 +26°C° 0.7 mm 1 m/S 683 mmHg 59%
13:00 +26°C° 0.7 mm 1 m/S 683 mmHg 60%
14:00 +26°C° 0.7 mm 1 m/S 683 mmHg 60%
15:00 +26°C° 0.5 mm 1 m/S 683 mmHg 62%
16:00 +26°C° 0.5 mm 1 m/S 683 mmHg 64%
17:00 +26°C° 0.5 mm 1 m/S 683 mmHg 66%
18:00 +24°C° 0.6 mm 1 m/S 683 mmHg 72%
19:00 +20°C° 0.6 mm 0 m/S 683 mmHg 79%
20:00 +19°C° 0.6 mm 0 m/S 683 mmHg 86%
21:00 +18°C° 0.1 mm 0 m/S 683 mmHg 87%
22:00 +19°C° 0.1 mm 1 m/S 683 mmHg 88%
23:00 +19°C° 0.1 mm 1 m/S 683 mmHg 89%

übermorgen, 24 Juni, Donnerstag

Zeit Temperatur Niederschläge Wind Luftdruck Luftfeuchtigkeit
00:00 +18°C° 0 mm 1 m/S 682 mmHg 90%
01:00 +18°C° 0 mm 1 m/S 682 mmHg 90%
02:00 +18°C° 0 mm 1 m/S 682 mmHg 90%
03:00 +18°C° 0 mm 1 m/S 682 mmHg 90%
04:00 +16°C° 0 mm 1 m/S 682 mmHg 89%
05:00 +16°C° 0 mm 1 m/S 682 mmHg 89%
06:00 +20°C° 0 mm 1 m/S 683 mmHg 83%
07:00 +20°C° 0 mm 0 m/S 683 mmHg 77%
08:00 +22°C° 0 mm 0 m/S 683 mmHg 70%
09:00 +23°C° 0 mm 0 m/S 684 mmHg 63%
10:00 +27°C° 0 mm 1 m/S 684 mmHg 56%
11:00 +28°C° 0 mm 1 m/S 684 mmHg 49%
12:00 +28°C° 0 mm 1 m/S 684 mmHg 50%
13:00 +28°C° 0 mm 2 m/S 684 mmHg 51%
14:00 +28°C° 0 mm 2 m/S 684 mmHg 52%
15:00 +27°C° 1 mm 2 m/S 684 mmHg 59%
16:00 +26°C° 1 mm 2 m/S 683 mmHg 65%
17:00 +26°C° 1 mm 1 m/S 683 mmHg 71%
18:00 +24°C° 1.3 mm 1 m/S 683 mmHg 78%
19:00 +22°C° 1.3 mm 1 m/S 683 mmHg 84%
20:00 +20°C° 1.3 mm 1 m/S 683 mmHg 91%
21:00 +19°C° 0 mm 1 m/S 682 mmHg 91%
22:00 +19°C° 0 mm 1 m/S 682 mmHg 91%
23:00 +18°C° 0 mm 1 m/S 682 mmHg 91%

25 Juni, Freitag

Zeit Temperatur Niederschläge Wind Luftdruck Luftfeuchtigkeit
00:00 +18°C° 0 mm 1 m/S 682 mmHg 90%
01:00 +18°C° 0 mm 1 m/S 682 mmHg 90%
02:00 +18°C° 0 mm 1 m/S 682 mmHg 89%
03:00 +18°C° 0 mm 1 m/S 682 mmHg 88%
04:00 +18°C° 0 mm 1 m/S 682 mmHg 87%
05:00 +16°C° 0 mm 1 m/S 682 mmHg 86%
06:00 +20°C° 0 mm 1 m/S 682 mmHg 78%
07:00 +23°C° 0 mm 1 m/S 682 mmHg 69%
08:00 +23°C° 0 mm 0 m/S 683 mmHg 60%
09:00 +27°C° 0 mm 1 m/S 683 mmHg 53%
10:00 +29°C° 0 mm 1 m/S 683 mmHg 46%
11:00 +30°C° 0 mm 1 m/S 683 mmHg 39%
12:00 +30°C° 0 mm 1 m/S 683 mmHg 39%
13:00 +31°C° 0 mm 2 m/S 683 mmHg 40%
14:00 +31°C° 0 mm 2 m/S 683 mmHg 40%
15:00 +29°C° 0.6 mm 2 m/S 682 mmHg 49%
16:00 +27°C° 0.6 mm 2 m/S 681 mmHg 57%
17:00 +25°C° 0.6 mm 3 m/S 681 mmHg 65%
18:00 +23°C° 0.7 mm 2 m/S 681 mmHg 75%
19:00 +20°C° 0.7 mm 2 m/S 681 mmHg 84%
20:00 +19°C° 0.7 mm 1 m/S 681 mmHg 93%
21:00 +18°C° 0.1 mm 2 m/S 681 mmHg 92%
22:00 +17°C° 0.1 mm 2 m/S 681 mmHg 92%
23:00 +17°C° 0.1 mm 2 m/S 681 mmHg 91%

26 Juni, Samstag

Zeit Temperatur Niederschläge Wind Luftdruck Luftfeuchtigkeit
00:00 +17°C° 0.1 mm 2 m/S 680 mmHg 92%
01:00 +17°C° 0.1 mm 2 m/S 680 mmHg 93%
02:00 +18°C° 0.1 mm 1 m/S 680 mmHg 94%
03:00 +16°C° 0.2 mm 1 m/S 680 mmHg 94%
04:00 +16°C° 0.2 mm 1 m/S 680 mmHg 94%
05:00 +15°C° 0.2 mm 1 m/S 680 mmHg 94%
06:00 +18°C° 0.1 mm 1 m/S 681 mmHg 92%
07:00 +19°C° 0.1 mm 1 m/S 681 mmHg 90%
08:00 +20°C° 0.1 mm 1 m/S 681 mmHg 88%
09:00 +21°C° 0.4 mm 1 m/S 682 mmHg 83%
10:00 +22°C° 0.4 mm 1 m/S 682 mmHg 79%
11:00 +22°C° 0.4 mm 1 m/S 682 mmHg 75%
12:00 +23°C° 1.2 mm 1 m/S 682 mmHg 75%
13:00 +23°C° 1.2 mm 1 m/S 682 mmHg 74%
14:00 +23°C° 1.2 mm 1 m/S 682 mmHg 74%
15:00 +22°C° 2 mm 1 m/S 681 mmHg 80%
16:00 +21°C° 2 mm 1 m/S 681 mmHg 86%
17:00 +19°C° 2 mm 1 m/S 681 mmHg 91%
18:00 +19°C° 0.3 mm 1 m/S 681 mmHg 93%
19:00 +18°C° 0.3 mm 1 m/S 680 mmHg 94%
20:00 +15°C° 0.3 mm 0 m/S 680 mmHg 95%
21:00 +16°C° 0.1 mm 1 m/S 680 mmHg 96%
22:00 +15°C° 0.1 mm 1 m/S 680 mmHg 96%
23:00 +15°C° 0.1 mm 1 m/S 680 mmHg 97%

27 Juni, Sonntag

Zeit Temperatur Niederschläge Wind Luftdruck Luftfeuchtigkeit
00:00 +15°C° 0.2 mm 1 m/S 681 mmHg 97%
01:00 +15°C° 0.2 mm 1 m/S 681 mmHg 98%
02:00 +15°C° 0.2 mm 1 m/S 681 mmHg 98%
03:00 +15°C° 0 mm 1 m/S 681 mmHg 98%
04:00 +15°C° 0 mm 1 m/S 681 mmHg 98%
05:00 +14°C° 0 mm 0 m/S 680 mmHg 97%
06:00 +16°C° 0.2 mm 1 m/S 681 mmHg 94%
07:00 +18°C° 0.2 mm 1 m/S 681 mmHg 91%
08:00 +18°C° 0.2 mm 1 m/S 681 mmHg 87%
09:00 +19°C° 0.6 mm 1 m/S 682 mmHg 86%
10:00 +19°C° 0.6 mm 1 m/S 682 mmHg 84%
11:00 +20°C° 0.6 mm 1 m/S 682 mmHg 82%
12:00 +20°C° 1.3 mm 1 m/S 682 mmHg 82%
13:00 +21°C° 1.3 mm 1 m/S 682 mmHg 81%
14:00 +21°C° 1.3 mm 1 m/S 682 mmHg 81%
15:00 +21°C° 0.9 mm 1 m/S 682 mmHg 82%
16:00 +20°C° 0.9 mm 1 m/S 682 mmHg 83%
17:00 +20°C° 0.9 mm 1 m/S 682 mmHg 84%
18:00 +19°C° 0.7 mm 1 m/S 682 mmHg 87%
19:00 +16°C° 0.7 mm 0 m/S 681 mmHg 91%
20:00 +15°C° 0.7 mm 0 m/S 681 mmHg 94%
21:00 +14°C° 0 mm 0 m/S 681 mmHg 95%
22:00 +13°C° 0 mm 0 m/S 681 mmHg 96%
23:00 +13°C° 0 mm 0 m/S 682 mmHg 96%
Mehr zeigen

Wir brauchen deine Erlaubnis

Meteoprog und unser Service Anbieter werden persönliche Daten aufbewahren, so wie Cookies, Geräte Bezeichnung oder ähnliche Technologien von deinem Gerät und Prozess, so wie Persönliche Daten Inhalte und Werbungen, genauso wie social Media und den Verkehr zu analysieren.

  • Aufbewahrung und/oder Zugang zu deiner Geräte Informationen.

    Cookies, Geräte Bezeichnung oder andere Informationen, können aufbewahrt oder Zugang zu deinem Gerät erhalten, für den Grund, der oben angegeben wird.

  • Personalisierte Werbung und Inhalte, Messungen, Einblick in das Publikum und Produkt Entwicklung.

    Werbungen und Inhalte können personalisiert werden, basierend auf ein Profil. Mehr Daten können besser personalisierte Werbungen und Inhalte hinzufügen. Werbung und Inhalte können gezeigt und gemessen werden. Einblicke über das Publikum, welche die Werbung gesehen haben und den Inhalt, können abgeleitet werden. So wie Daten können genutzt werden, um es zu verbessern oder die Benutzer Erfahrung zu verbessern das System und die Software.

Wenn du “Ich stimme zu” klickst, erlaubst du uns, die Cookies zu benutzen die Geräte Bezeichnung, den Web oder ähnliche Technologien zu benutzen. Deine Settings, können in deinem Gerät bei deinem Browser geändert werden.

Für den bestimmten Zweck, berechtigten Interessen beruhen darauf, mehr als auf den Inhalt. Du kannst mehr darüber in unseren Privaten und Cookie Politik lesen.